Ketchikan, AK

2:55 AM AKST on January 21, 2019 (GMT -0900)
Ketchikan International

Weather History for PAKT - November, 2018

Change the Weather History Date:

Thursday, November 15, 2018

  Actual Average Record
Temperature  
Mean Temperature 42 °F -  
Max Temperature 48 °F 45 °F 57 °F (1979)
Min Temperature 37 °F 34 °F 17 °F (1959)
Degree Days  
Heating Degree Days 22    
Moisture  
Dew Point 41 °F    
Average Humidity 91    
Maximum Humidity 100    
Minimum Humidity 81    
Precipitation  
Precipitation 0.20 in - - ()
Sea Level Pressure  
Sea Level Pressure 30.09 in    
Wind  
Wind Speed 5 mph (WNW)    
Max Wind Speed 13 mph    
Max Gust Speed -    
Visibility 10 miles    
Events Rain    
Averages and records for this station are not official NWS values.
T = Trace of Precipitation, MM = Missing Value Source: NWS Daily Summary

Daily Weather History Graph

Daily Weather History Graph

Search for Another Location

Airport or City:

Astronomy

Nov. 15, 2018 Rise Set
Actual Time 7:20 AM AKST 3:41 PM AKST
Civil Twilight 6:39 AM AKST 4:22 PM AKST
Nautical Twilight 5:54 AM AKST 5:07 PM AKST
Astronomical Twilight 5:11 AM AKST 5:50 PM AKST
Moon 1:37 PM AKST (11/15) 11:02 PM AKST (11/15)
Length of Visible Light 9h 43m
Length of Day
8h 20m
First Quarter, 53% of the Moon is Illuminated
Nov 15
First Quarter
Nov 22
Full
Nov 29
Last Quarter
Dec 6
New
Dec 15
First Quarter

Hourly Weather History & Observations

Time (AKST) Temp. Windchill Dew Point Humidity Pressure Visibility Wind Dir Wind Speed Gust Speed Precip Events Conditions
12:21 AM 46.0 °F 43.1 °F 43.0 °F 89% 29.97 in 5.0 mi SSE 5.8 mph - 0.06 in Rain Light Rain
12:31 AM 46.0 °F 43.1 °F 44.1 °F 93% 29.97 in 6.0 mi SSE 5.8 mph - 0.07 in Rain Light Rain
12:50 AM 44.6 °F 41.4 °F 44.6 °F 100% 29.97 in 9.0 mi South 5.8 mph - 0.08 in Rain Light Rain
12:53 AM 45.0 °F 41.8 °F 44.1 °F 97% 29.97 in 9.0 mi South 5.8 mph - 0.08 in Rain Light Rain
1:53 AM 46.0 °F 41.9 °F 43.0 °F 89% 29.96 in 6.0 mi SE 8.1 mph - 0.02 in Rain Light Rain
2:53 AM 46.0 °F 43.1 °F 43.0 °F 89% 29.96 in 9.0 mi SE 5.8 mph - 0.05 in Rain Light Rain
3:27 AM 45.0 °F 42.6 °F 43.0 °F 93% 29.95 in 10.0 mi SSE 4.6 mph - 0.01 in Rain Light Rain
3:53 AM 45.0 °F 43.5 °F 43.0 °F 93% 29.94 in 10.0 mi SSE 3.5 mph - 0.03 in Rain Light Rain
4:06 AM 45.0 °F - 43.0 °F 93% 29.94 in 10.0 mi Calm Calm - 0.00 in Rain Light Rain
4:53 AM 44.1 °F - 42.1 °F 93% 29.96 in 10.0 mi Calm Calm - 0.01 in Rain Light Rain
5:53 AM 43.0 °F - 41.0 °F 93% 29.96 in 10.0 mi Calm Calm - 0.01 in   Overcast
6:05 AM 42.8 °F - 39.2 °F 87% 29.97 in 10.0 mi Calm Calm - N/A   Scattered Clouds
6:51 AM 42.8 °F 39.3 °F 41.0 °F 93% 29.97 in 10.0 mi NW 5.8 mph - N/A   Overcast
6:53 AM 42.8 °F 40.1 °F 41.0 °F 93% 29.98 in 10.0 mi NW 4.6 mph - N/A   Overcast
7:53 AM 42.1 °F 39.2 °F 39.9 °F 92% 30.01 in 10.0 mi NW 4.6 mph - N/A   Scattered Clouds
8:53 AM 44.6 °F 40.2 °F 41.0 °F 87% 30.04 in 10.0 mi NNW 8.1 mph - N/A   Partly Cloudy
9:53 AM 46.4 °F 41.5 °F 42.8 °F 87% 30.06 in 10.0 mi NNW 10.4 mph - N/A   Mostly Cloudy
10:51 AM 46.4 °F 41.1 °F 42.8 °F 87% 30.07 in 10.0 mi NNW 11.5 mph - N/A   Scattered Clouds
10:53 AM 46.4 °F 40.7 °F 42.8 °F 87% 30.08 in 10.0 mi NNW 12.7 mph - N/A   Scattered Clouds
11:53 AM 48.2 °F - 42.8 °F 82% 30.10 in 10.0 mi North 10.4 mph - N/A   Partly Cloudy
12:53 PM 46.4 °F 42.9 °F 42.8 °F 87% 30.12 in 10.0 mi NW 6.9 mph - N/A   Partly Cloudy
1:53 PM 46.4 °F 42.4 °F 42.8 °F 87% 30.14 in 10.0 mi NW 8.1 mph - N/A   Partly Cloudy
2:53 PM 44.6 °F - 39.2 °F 81% 30.17 in 10.0 mi Calm Calm - N/A   Partly Cloudy
3:51 PM 44.6 °F 43.1 °F 41.0 °F 87% 30.19 in 10.0 mi WNW 3.5 mph - N/A   Mostly Cloudy
3:53 PM 44.6 °F 42.2 °F 41.0 °F 87% 30.19 in 10.0 mi NW 4.6 mph - N/A   Mostly Cloudy
4:53 PM 44.6 °F 41.4 °F 42.8 °F 93% 30.22 in 10.0 mi North 5.8 mph - N/A   Mostly Cloudy
5:51 PM 41.0 °F 39.0 °F 39.2 °F 93% 30.23 in 10.0 mi West 3.5 mph - N/A   Scattered Clouds
5:53 PM 41.0 °F 39.0 °F 39.0 °F 93% 30.24 in 10.0 mi West 3.5 mph - N/A   Partly Cloudy
6:53 PM 39.0 °F 35.7 °F 37.9 °F 96% 30.27 in 10.0 mi South 4.6 mph - N/A   Partly Cloudy
7:53 PM 37.4 °F 34.9 °F 35.6 °F 93% 30.27 in 10.0 mi WSW 3.5 mph - N/A   Scattered Clouds
8:53 PM 39.2 °F - 39.2 °F 100% 30.29 in 10.0 mi Calm Calm - N/A   Overcast
9:53 PM 42.1 °F - 39.9 °F 92% 30.30 in 10.0 mi Calm Calm - N/A   Overcast
10:53 PM 43.0 °F - 41.0 °F 93% 30.32 in 10.0 mi Calm Calm - N/A   Overcast
11:53 PM 43.0 °F - 39.9 °F 89% 30.34 in 10.0 mi Calm Calm - N/A   Overcast